Vorticity
1 -2 -1 2 2 -1 9 11 7 8 9 8 6 5 6 7 8 10 9 8 9 10 12 10 14 16 17
1 -3 -0 -3 -0 1 2 -1 9 13 8 8 10 8 6 5 4 3 3 3 5 8 10 13 13 13 13
-1 0 -2 -3 -2 0 1 1 0 4 7 14 9 8 9 10 9 7 6 6 6 6 5 4 3 3 5
1 0 -0 -2 -1 -1 -0 1 3 3 1 4 9 13 10 7 8 10 11 10 8 8 7 8 8 8 9
4 3 5 2 4 3 3 2 4 4 3 3 2 4 9 9 14 10 8 9 9 8 9 10 8 9 9
2 3 -0 4 4 2 4 2 2 3 4 4 4 2 3 10 7 11 14 8 9 10 9 11 12 12 9
4 5 7 6 6 5 5 4 4 2 3 3 5 5 3 4 6 7 9 14 10 6 9 11 10 11 11
7 8 7 8 8 8 6 7 6 4 5 4 7 5 5 5 3 5 10 12 7 11 12 12 13 12 12
10 11 9 8 8 8 7 6 7 7 8 9 9 7 6 8 5 4 15 9 8 11 11 9 11 12 14
12 16 13 11 10 9 7 8 10 10 10 12 10 13 3 10 5 5 11 13 10 9 9 9 7 13 14
9 10 9 11 14 13 5 4 6 9 8 15 8 15 5 10 13 -5 19 18 10 7 10 9 10 13 18
17 11 11 14 15 4 19 28 17 8 16 3 12 16 -4 7 -0 19 17 16 9 7 10 9 13 15 17
-1 12 15 20 17 14 12 12 15 23 16 14 11 -5 15 35 17 14 17 14 7 7 8 11 12 12 16
17 21 -2 15 10 13 18 14 16 15 20 12 24 25 9 13 13 18 16 9 6 9 13 15 12 13 14
11 9 21 3 10 11 16 17 12 18 16 33 16 10 14 14 19 12 9 8 8 11 16 14 11 11 16
34 12 13 5 25 15 18 14 10 19 13 17 16 12 15 17 10 9 7 9 10 13 13 13 15 17 18
15 23 18 28 26 22 7 4 14 0 18 2 17 13 15 11 8 7 9 11 11 12 13 17 16 16 14
Height
5671 5668 5665 5661 5658 5654 5651 5647 5645 5643 5640 5639 5637 5636 5636 5636 5636 5636 5635 5634 5634 5633 5633 5632 5633 5632 5632
5667 5664 5661 5658 5654 5651 5648 5644 5641 5640 5638 5635 5633 5632 5631 5630 5629 5628 5628 5627 5627 5626 5625 5625 5623 5622 5621
5661 5658 5655 5653 5651 5647 5644 5641 5638 5634 5632 5630 5629 5627 5625 5623 5622 5620 5619 5618 5617 5616 5615 5614 5613 5613 5612
5652 5649 5647 5644 5642 5641 5638 5635 5632 5629 5626 5623 5621 5619 5617 5616 5614 5612 5611 5609 5608 5606 5604 5603 5602 5601 5599
5640 5639 5636 5634 5633 5631 5629 5626 5624 5622 5619 5616 5613 5610 5608 5606 5604 5603 5601 5599 5597 5595 5593 5591 5590 5589 5588
5626 5624 5622 5621 5620 5618 5616 5614 5612 5611 5608 5607 5604 5600 5597 5595 5593 5591 5590 5588 5586 5584 5581 5579 5577 5575 5574
5610 5608 5607 5606 5605 5603 5602 5600 5598 5597 5596 5593 5591 5589 5587 5584 5581 5579 5577 5576 5574 5571 5568 5566 5564 5562 5560
5594 5592 5590 5589 5588 5587 5586 5585 5583 5582 5581 5581 5578 5576 5574 5572 5570 5567 5565 5563 5560 5558 5555 5553 5550 5547 5545
5577 5575 5573 5572 5571 5569 5569 5568 5568 5566 5566 5565 5563 5561 5560 5558 5556 5554 5552 5549 5546 5544 5542 5539 5536 5533 5531
5558 5556 5555 5553 5552 5552 5551 5550 5551 5550 5549 5548 5547 5546 5544 5542 5541 5539 5537 5535 5532 5531 5529 5525 5523 5520 5517
5538 5537 5535 5534 5534 5534 5534 5533 5532 5533 5531 5530 5530 5529 5528 5527 5525 5523 5521 5520 5518 5516 5514 5512 5509 5506 5502
5518 5516 5514 5513 5515 5516 5514 5514 5514 5513 5512 5512 5512 5513 5512 5510 5509 5507 5507 5505 5503 5502 5500 5497 5495 5493 5491
5497 5496 5494 5495 5498 5496 5496 5497 5496 5495 5494 5495 5494 5495 5496 5495 5494 5491 5491 5490 5489 5487 5485 5483 5481 5479 5477
5478 5477 5477 5479 5478 5478 5478 5478 5479 5479 5479 5479 5480 5481 5479 5479 5479 5477 5478 5476 5475 5473 5471 5468 5467 5467 5464
5460 5461 5461 5462 5460 5461 5461 5462 5463 5464 5465 5466 5465 5465 5464 5465 5465 5466 5464 5463 5462 5460 5458 5454 5452 5453 5450
5443 5444 5445 5444 5444 5444 5445 5447 5448 5449 5450 5451 5452 5452 5453 5453 5453 5453 5453 5451 5448 5447 5446 5443 5438 5439 5438
5431 5430 5429 5429 5429 5429 5430 5432 5434 5436 5437 5439 5439 5440 5442 5442 5442 5442 5441 5439 5437 5435 5434 5432 5429 5427 5427